Vertical_Velocity
-1 -1 -1 -1 -1 -1 -1 -1 -1 -1 -1 -1 -1 -0 1 -0 -0 -0 -1 -1 -1 -0 -0 0 0 -0 -0 -0 0 0 0 0 -0 -0 -0 -0 0 0 0 0 0 0 1 1 0 -0 -0 -0 -0 -0 -0 -0 -0 0 0 0 -0 -1 -2 -1 -1 -1 -2 -1 -1 -1 -1 -1 -0 -0 -1 -1 -1 -1 -0 -1 -1 -1 -1 -1 -1 -1 -1 -1 -1 -1 -1 -2 -1 -1 -1 -1 -1 -1 -1 -1 -1 -1 -0 -0 -1 -1 -1
-2 -1 -1 -1 -1 -1 -2 -2 -1 -0 -0 -3 -2 1 5 1 -1 -2 -1 -1 -1 -0 -0 0 0 -0 -0 -0 -0 -0 -0 -0 -0 -0 -0 -0 -0 0 0 0 0 1 1 1 0 0 -0 0 0 0 -0 0 0 0 0 0 0 0 0 -0 -0 -0 -1 -0 -0 -1 -0 -0 -0 -0 -1 -0 -0 -0 -0 -1 -1 -1 -1 -1 -1 -1 -1 -1 -1 -1 -1 -1 -2 -1 -1 -1 -1 -1 -0 -1 -1 -1 -0 -1 -1 -2 -1
-2 -2 -1 -1 -0 1 3 4 6 7 5 -1 -0 4 7 3 -1 -3 -1 -1 -1 -0 0 -0 -0 -0 -0 -0 -0 -0 -0 -0 -0 -0 -0 -0 -0 0 0 0 1 1 1 1 0 0 -0 0 0 0 0 0 0 0 0 0 0 0 0 0 -0 -1 -1 0 0 -0 -0 -0 -0 -0 -0 -0 -0 -0 -0 -0 -1 -1 -1 -1 -0 -0 -0 -0 -0 -1 -1 -1 -1 -1 -1 -1 -1 -1 -1 -1 -1 -1 -1 -1 -1 -1 -1
-1 -1 -2 -2 0 7 18 9 8 11 13 3 3 6 4 1 -1 -3 -1 -1 -0 -0 0 -0 -0 -0 -0 -0 -0 -0 -0 -0 -0 -0 -0 -0 -0 -0 0 0 0 1 1 1 0 0 -0 0 0 0 0 0 0 0 0 0 0 0 0 0 -1 -1 -0 0 0 0 -0 -1 -1 -0 0 -0 0 0 0 0 -0 -0 -1 -1 -0 -0 0 -0 -0 -0 -0 -0 0 0 0 -0 -0 -0 -0 -0 -0 -1 -1 -1 -1 -1 -1
-0 -0 -2 -2 -0 4 10 4 5 8 7 -1 -2 -1 -3 -2 -2 -1 -1 -1 -0 -0 -0 -0 -0 -0 -0 -0 -0 -0 -0 -0 -0 -0 -0 -0 -0 -0 -0 0 0 0 0 0 0 0 -0 0 0 1 1 0 0 0 0 0 -0 -0 0 0 -1 -1 0 -0 -0 -0 -0 -1 -0 -0 0 0 0 0 0 0 0 -0 -0 -1 -0 -0 -0 -0 0 0 0 0 0 1 0 0 -0 -0 -1 -0 -0 -0 -0 -1 -1 -1 -1
-1 -1 -2 -0 -2 -3 -1 2 2 3 6 4 3 2 0 -1 -1 -1 -1 -0 -0 -0 -0 -0 -0 -0 -0 -0 -0 -0 -0 -0 -0 -0 -0 -0 -0 -0 -0 -0 -0 0 0 0 0 0 -0 -0 0 1 1 1 0 0 0 -0 -0 -0 0 0 -0 -1 -0 -0 -0 -1 -0 -0 -0 -0 0 0 0 0 0 0 0 0 -1 -1 -1 -0 -0 -0 -0 0 0 0 0 -0 -0 -0 -1 -1 -1 -0 -0 -0 -0 -1 -1 -1 -1
-1 -1 -1 2 1 -2 -3 -0 3 4 2 -0 1 2 -0 -1 -1 -1 -0 -0 -0 -0 -0 -0 -0 -0 0 0 0 0 -0 -0 -0 -0 -0 -0 -0 -0 -0 -0 -0 -0 -0 0 0 0 0 -0 0 0 1 1 0 0 0 -0 -0 -0 0 0 -0 -1 -1 -0 -0 -0 -0 -0 -0 0 0 0 0 0 0 -0 -0 -0 -1 -1 -0 -0 -0 -0 -0 0 0 0 0 -0 -0 -1 -1 -1 -1 -0 -0 -0 -0 -1 -1 -1 -1
-1 -1 -0 3 3 0 -5 -1 1 1 -1 -1 -2 -3 -3 -2 -1 -1 -0 -0 -0 -0 -0 -0 0 0 0 0 0 0 0 -0 -0 -0 -0 -0 -0 -0 -0 -0 -0 -0 -0 -0 -0 -0 -0 -0 -0 0 0 0 0 0 0 -0 -0 0 0 0 -0 -1 -1 -0 -0 0 0 0 0 -0 -0 0 0 0 0 -0 -0 -1 -0 -0 -0 -0 -0 -0 -0 -0 -0 -0 -0 -0 -1 -1 -1 -1 -1 -1 -1 -1 -1 -1 -1 -1 -1
-0 -1 -1 0 1 -0 -6 -2 -0 -0 -1 -2 -2 -2 -1 -1 -0 -0 -0 -0 -0 -0 -0 0 0 0 0 0 0 0 0 -0 -0 -0 -0 -0 -0 -0 -1 -1 -1 -1 -0 -0 -0 -0 -0 -0 -0 0 0 0 0 0 -0 -0 0 0 0 0 -0 -1 -0 -0 0 0 0 0 -0 -0 -0 0 0 0 0 -0 -0 -0 -0 -0 -0 -0 -0 -0 -0 -0 -0 -0 -0 -1 -1 -1 -1 -1 -1 -1 -1 -1 -1 -1 -1 -2 -2
-0 -0 -1 -1 -1 -2 -3 -1 -1 -1 -2 -2 -1 -1 -0 -0 -0 -0 -0 -0 -0 -0 -0 -0 -0 -0 -0 -0 -0 -0 0 -0 -0 -0 -0 -0 -0 -0 -1 -1 -1 -1 -1 -0 -0 -0 -0 -0 -0 -0 0 0 0 0 -0 0 0 0 0 -0 -0 -1 -0 -0 0 0 0 0 -0 -0 0 0 0 0 0 -0 -0 -0 -0 -0 -0 -0 -1 -0 -0 -0 -1 -1 -0 -1 -1 -1 -1 -1 -1 -1 -1 -1 -1 -1 -1 -1 -1
-0 -0 -0 -1 -1 -1 -0 -0 -0 -1 -2 -2 -1 -0 -0 -0 -0 -0 -0 -0 -0 -0 -0 -0 -0 -0 -0 -0 -0 -0 -0 -0 -0 -0 -0 -0 -0 -0 -0 -0 -0 -0 -0 -0 -0 -0 -0 -0 -0 -0 0 0 0 0 -0 0 0 0 0 -0 -1 -1 0 -0 -0 0 0 0 0 0 0 0 -0 -0 -0 -0 -0 -0 -0 -0 -0 -0 -0 -0 -0 -0 -1 -1 -1 -1 -1 -1 -1 -1 -1 -1 -1 -1 -1 -1 -1 -1 -1
-0 -0 -0 -0 -0 -0 -0 -0 -1 -1 -2 -1 -0 -0 -0 -0 -0 -0 -0 -0 -0 -0 -0 -0 -0 -0 -0 -0 -0 -0 -0 -0 -0 -0 -0 -0 0 0 0 0 -0 -0 -0 -0 -0 -0 -0 -0 -0 -0 0 0 0 0 -0 0 0 0 0 -0 -1 -1 0 0 -0 0 0 0 1 1 0 0 -0 -0 -0 -0 -0 -0 -0 -0 -0 -0 -0 -0 -0 -0 -1 -1 -1 -1 -1 -1 -1 -1 -1 -1 -1 -1 -1 -1 -1 -1 -1
-0 -0 0 -0 -0 0 0 -0 -0 -1 -1 -0 -0 -0 -0 -0 -0 -0 -0 -0 -0 -0 -0 -1 -1 -1 -1 -0 -0 -0 -0 -0 -0 -0 -0 -0 0 0 0 0 0 -0 -0 -0 -0 -0 -0 -0 -0 -0 0 0 0 0 -0 -0 0 0 0 -1 -1 -1 0 0 0 0 0 1 1 1 0 0 -0 -0 -0 -0 -1 -1 -0 -0 -0 -0 -0 -0 -0 -1 -1 -1 -1 -1 -1 -1 -1 -1 -1 -1 -1 -1 -1 -1 -1 -1 -1
0 0 0 0 0 0 0 -0 -0 -0 -0 0 -0 -0 -0 -0 -0 -0 -0 -0 -0 -0 -1 -1 -1 -1 -1 -0 -0 -0 -0 -0 -0 -0 -1 -0 -0 0 0 0 0 -0 -0 -0 -1 -1 -1 -1 -1 -0 -0 0 0 0 -0 -0 0 0 -0 -1 -1 -1 0 0 0 0 0 0 0 0 0 -0 -0 -0 -0 -0 -1 -1 -0 -0 -0 -1 -0 -0 -1 -1 -1 -1 -1 -1 -1 -1 -1 -1 -1 -1 -1 -1 -1 -1 -1 -1 -1
-0 0 0 0 0 0 0 0 0 0 0 0 0 0 0 0 -0 -0 -0 -0 -0 -0 -0 -1 -1 -1 -1 -1 -0 -0 -0 -0 -0 -1 -1 -1 -0 -0 -0 -0 -0 -0 -0 -0 -1 -1 -1 -1 -1 -0 -0 -0 -0 -0 -0 -0 -0 -0 -1 -1 -2 -1 -0 -0 0 0 -0 0 0 0 -0 -0 -0 -1 -1 -0 -0 -0 -0 -0 -0 -1 -1 -1 -1 -1 -1 -1 -1 -1 -1 -1 -1 -1 -1 -1 -1 -1 -1 -1 -1 -1 -2
-0 -0 0 0 0 0 0 0 1 1 1 1 1 1 1 1 1 0 0 0 0 -0 -0 -0 -1 -1 -1 -1 -0 -0 -0 -0 -0 -1 -1 -1 -1 -0 -0 -0 -0 -0 -0 -0 -1 -1 -1 -1 -1 -1 -0 -0 -0 -0 -0 -0 -0 -0 -1 -1 -2 -2 -1 -1 -0 -0 -1 -0 -0 -0 -0 -1 -1 -1 -1 -1 -0 -0 -0 -0 -0 -0 -1 -1 -0 -0 -0 -1 -1 -1 -1 -1 -1 -1 -1 -1 -1 -1 -1 -1 -1 -1 -1
-0 -0 -0 0 0 1 1 1 1 1 1 1 1 1 1 1 1 1 1 0 0 0 -0 -0 -1 -1 -1 -0 -0 -0 -0 -0 -0 -1 -1 -1 -0 -0 -1 -1 -1 -0 -0 -0 -1 -1 -1 -1 -1 -1 -0 -0 -0 -0 -0 -0 -0 -0 -1 -1 -1 -2 -1 -1 -1 -1 -2 -1 -1 -0 -0 -1 -1 -1 -1 -1 -1 -0 -0 -0 -0 -0 -0 -0 -0 -0 -0 -0 -0 -0 -0 -0 -0 -0 -1 -1 -1 -1 -1 -1 -1 -1 -1
-0 -0 -0 0 0 1 1 1 1 1 1 1 1 1 1 1 1 1 0 0 0 0 -0 -0 -1 -1 -1 -0 -0 -0 -0 -0 -0 -0 -0 -0 -0 -0 -0 -1 -1 -1 -0 -1 -1 -1 -1 -1 -0 -0 -0 -0 -0 -0 -0 -0 -0 -0 -1 -1 -1 -1 -1 -1 -1 -1 -2 -1 -1 -1 -0 -1 -1 -1 -1 -1 -1 -1 -1 -0 -0 -0 -0 -0 -0 -0 -0 -0 -0 -0 -0 -0 -0 -0 -0 -0 -0 -0 -0 -1 -1 -1 -1
-0 -0 -0 0 0 1 1 1 1 1 1 1 1 1 1 1 1 1 0 0 0 -0 -0 -0 -0 -1 -0 -0 -0 -0 -0 -0 -0 -0 -0 -0 -0 -0 -0 -0 -1 -1 -1 -1 -1 -1 -1 -0 -0 -0 -0 -0 -0 -0 -0 -0 -0 -0 -0 -1 -1 -1 -1 -1 -1 -1 -1 -1 -1 -1 -1 -1 -1 -1 -1 -1 -1 -1 -1 -1 -1 -1 -0 -0 -0 -0 -0 -0 -0 -0 -0 -0 -0 -0 -0 -0 -0 -0 -0 -0 -1 -1 -1
0 0 0 0 0 0 0 1 1 1 1 1 1 1 1 1 1 0 0 -0 -0 -0 -0 -0 -0 -0 -0 0 -0 -0 -0 -0 -0 -0 -0 -0 0 0 -0 -0 -1 -1 -1 -1 -1 -1 -1 -1 -0 -0 -0 -0 -0 -0 -0 -0 -0 -0 -0 -0 -0 -0 -1 -1 -1 -1 -1 -1 -1 -1 -1 -1 -1 -1 -1 -1 -1 -1 -1 -1 -1 -1 -1 -1 -1 -1 -1 -1 -1 -1 -1 -1 -1 -1 -0 -0 -0 -0 -0 -0 -1 -1 -1
-0 -0 0 0 0 -0 0 0 0 1 1 1 1 1 1 1 0 0 0 -0 -0 -0 -0 0 0 0 0 0 0 0 -0 -0 -0 -0 -0 0 0 0 0 -0 -0 -1 -1 -1 -1 -1 -1 -1 -1 -0 -0 -0 -1 -1 -0 -0 -0 -0 -0 -0 -0 -0 -0 -0 -0 -0 -0 -1 -1 -1 -1 -1 -1 -1 -1 -1 -1 -1 -1 -1 -1 -1 -1 -1 -1 -1 -1 -1 -1 -1 -1 -1 -1 -1 -1 -1 -1 -1 -1 -1 -1 -1 -1
-0 -0 -0 -0 -0 -0 -0 -0 0 0 1 1 1 1 0 0 0 -0 -0 -0 -0 -0 0 0 1 1 1 1 1 0 0 -0 -0 -0 -0 -0 0 0 0 0 -0 -0 -1 -1 -1 -1 -1 -1 -1 -1 -0 -1 -1 -1 -1 -1 -1 -0 -0 -0 -0 -0 0 0 0 -0 -0 -0 -0 -0 -1 -1 -1 -0 -1 -0 -0 -0 -0 -0 -0 -0 -0 -1 -1 -1 -1 -1 -1 -1 -1 -1 -1 -1 -1 -1 -1 -1 -1 -1 -1 -1 -1
-0 -0 -0 -0 -0 -0 -0 -0 -0 0 0 0 0 0 0 0 -0 -0 -0 -0 -0 -0 -0 0 0 1 1 1 1 0 0 0 -0 -0 -0 -0 -0 -0 0 0 0 -0 -0 -1 -1 -1 -1 -1 -1 -1 -1 -1 -1 -1 -1 -1 -1 -1 -1 -1 -0 -0 -0 -0 0 0 0 -0 -0 -0 -0 -0 -0 -0 0 0 0 0 0 -0 -0 -0 -0 -0 -0 -1 -1 -1 -1 -1 -1 -1 -1 -1 -1 -1 -1 -1 -1 -1 -1 -1 -1
-0 -0 -0 -0 -0 -0 -0 -0 -0 -0 0 0 0 0 0 0 -0 -0 -0 -0 -0 -0 -0 -0 -0 0 1 0 0 0 0 0 0 -0 -0 -0 -0 -0 -0 -0 0 0 0 -0 -0 -0 -0 -1 -1 -1 -1 -1 -1 -1 -1 -1 -1 -1 -1 -1 -1 -1 -1 -0 -0 -0 -0 -0 -0 -0 -0 -0 0 0 0 0 0 0 0 0 0 -0 -0 -0 -0 -0 -1 -1 -1 -1 -1 -1 -2 -2 -2 -2 -2 -1 -1 -0 -0 -0 0
-0 -0 -0 -0 -0 -0 -0 -0 -0 -0 -0 0 0 0 0 0 0 -0 -0 -0 -0 -0 -0 -0 -0 -0 -0 0 0 0 0 0 0 -0 -0 -0 -0 -0 -0 -0 -0 0 0 0 -0 -0 -0 -0 -0 -1 -1 -1 -1 -1 -1 -1 -1 -1 -1 -1 -1 -1 -1 -1 -0 -0 -0 -0 -0 -0 -0 -0 -0 -0 0 0 0 0 0 0 0 -0 -0 -0 -0 -1 -1 -1 -1 -1 -1 -2 -2 -2 -2 -2 -2 -2 -1 -1 -0 0 1
0 0 -0 -0 -0 -0 -0 -0 -0 -0 -0 0 0 0 0 0 0 0 0 0 -0 -0 -0 -1 -1 -0 -0 -0 -0 0 0 0 -0 -0 -0 -0 -0 -0 -0 -0 -0 -0 -0 -0 -0 -0 -0 -0 -0 -0 -1 -1 -1 -1 -1 -1 -1 -1 -1 -1 -1 -1 -1 -1 -0 -0 0 0 0 0 0 0 -0 -0 -0 0 0 0 0 0 0 -0 -0 -0 -0 -1 -1 -1 -1 -1 -1 -1 -2 -2 -2 -2 -2 -2 -2 -2 -1 -1 -0
-0 -0 -0 -0 -0 -0 -0 -0 -0 -0 0 0 0 0 0 0 0 0 0 0 -0 -0 -0 -1 -1 -0 -0 -0 -0 -0 -0 -0 -0 -0 -0 -0 -0 -0 -0 -0 -1 -1 -1 -0 -0 -0 -0 -0 -0 -0 -0 -1 -1 -1 -1 -1 -1 -1 -1 -1 -1 -1 -0 -0 -0 0 0 1 1 1 0 0 0 0 0 0 0 0 0 0 0 0 0 -0 -0 -0 -1 -1 -1 -1 -1 -1 -1 -1 -1 -2 -2 -2 -2 -2 -2 -2 -2
-0 -0 -0 -0 -0 -0 -0 -0 0 0 0 0 0 0 0 -0 0 0 0 0 -0 -0 -1 -1 -1 -1 -0 -0 -0 -0 -0 -0 -0 -0 -0 -0 -0 -0 -0 -0 -0 -0 -1 -1 -1 -0 -0 -0 -0 -0 -0 -0 -0 -0 -0 -0 -0 -0 -0 -0 -0 -0 0 0 0 1 1 1 1 1 1 1 1 1 1 1 1 1 1 1 0 0 0 0 -0 -0 -0 -0 -0 -1 -1 -1 -1 -1 -1 -1 -2 -2 -2 -3 -3 -3 -3
-0 -0 -0 -0 -0 -0 -0 0 0 0 0 0 0 0 -0 -0 -0 0 0 0 0 -0 -0 -1 -1 -1 -1 -1 -1 -1 -1 -1 -1 -1 -1 -1 -1 -0 -0 -0 -0 -0 -0 -0 -0 -0 -0 -0 -0 -0 -0 -0 -0 -0 -0 -0 -0 0 0 0 1 1 1 1 1 1 1 1 1 1 1 1 1 1 1 1 1 1 1 1 1 0 0 0 0 0 0 0 -0 -0 -0 0 0 0 0 -0 -1 -1 -2 -3 -3 -4 -4
-0 -0 -0 -0 -0 -0 -0 0 0 0 0 0 0 -0 -0 -0 -0 0 0 0 0 -0 -0 -1 -1 -1 -1 -1 -1 -1 -1 -1 -1 -1 -1 -1 -1 -1 -1 -0 -0 -0 -0 -0 -0 -0 -0 -0 -0 -0 -0 -0 -0 -0 -0 0 0 0 1 1 1 1 1 1 1 1 1 2 2 2 2 2 2 1 1 1 1 1 0 0 0 0 0 0 1 1 1 1 1 1 1 1 1 1 1 1 1 1 0 -0 -1 -2 -3
-0 -0 0 0 0 0 -0 0 0 0 0 0 -0 -0 -0 -0 -0 0 0 0 0 -0 -0 -1 -1 -1 -1 -1 -1 -1 -1 -1 -1 -1 -1 -1 -1 -1 -1 -0 -0 -0 -0 -0 -0 -0 -0 -0 -0 -0 -0 -0 -0 -0 -0 0 0 1 1 1 2 2 2 2 2 2 2 2 2 2 2 2 1 1 1 0 0 -0 -0 -0 -0 -0 -0 0 1 1 1 1 1 1 1 1 1 1 1 1 2 2 3 3 2 2 0
0 0 1 1 0 0 0 0 0 0 0 -0 -0 -0 -0 -0 -0 -0 0 0 0 -0 -0 -1 -1 -1 -1 -1 -1 -1 -1 -0 -0 -1 -1 -1 -1 -1 -1 -1 -1 -0 -0 -0 -0 -0 -0 -0 -0 -0 -0 -0 -0 -0 -0 0 1 1 1 2 1 1 1 1 1 1 2 2 1 1 1 1 0 -0 -0 -1 -1 -1 -1 -1 -0 -0 -0 0 1 1 1 1 1 1 1 0 0 0 0 1 1 2 2 3 3 3 3
1 1 1 1 0 0 0 0 0 0 0 -0 -0 -0 -0 -0 -0 -0 0 0 0 -0 -0 -0 -1 -1 -1 -1 -1 -1 -1 -0 -0 -0 -0 -0 -0 -1 -1 -1 -1 -0 -0 -1 -0 -0 -1 -1 -1 -1 -1 -1 -0 -0 0 0 1 1 1 1 1 1 1 1 1 1 1 0 -0 -0 -1 -1 -1 -1 -1 -1 -1 -1 -1 -1 -1 -0 0 0 0 0 0 0 0 0 -0 0 -0 -0 -0 -0 -0 0 0 0 1 2 3
0 1 0 0 0 0 -0 -0 -0 -0 -0 -0 -0 -0 -0 -0 -0 -0 -0 -0 -0 -0 -0 -0 -1 -1 -1 -1 -1 -1 -1 -0 -0 -0 -0 -0 -0 -0 -0 -0 -0 -0 -0 -1 -1 -1 -1 -1 -1 -1 -1 -1 -0 -0 -0 0 0 1 1 1 1 1 1 1 1 0 -0 -1 -1 -2 -2 -2 -2 -1 -1 -1 -1 -1 -0 -0 -0 -0 0 0 0 -0 -0 -0 -1 -1 -1 -0 -0 -0 -0 -0 -0 -0 -0 -1 -1 -1 1
0 0 -0 -0 -0 -0 -0 -1 -1 -1 -0 -0 -0 -0 -0 -0 -0 -0 -0 -0 -0 -0 -0 -0 -1 -1 -1 -1 -1 -1 -1 -0 -0 -0 -0 -0 -0 -0 -0 -0 -0 -0 -0 -0 -0 -0 -0 -0 -1 -1 -1 -0 -0 -0 -0 0 0 1 1 1 1 1 1 0 -0 -1 -1 -2 -2 -2 -2 -1 -1 -0 0 0 0 0 0 0 0 1 1 1 1 0 -0 -0 -0 -1 -1 -1 -0 0 1 1 1 1 1 1 -0 -1 -0
-0 -0 -0 -0 -1 -0 -0 -0 -1 -1 -1 -0 -0 -0 -0 -0 -0 -0 -0 -0 -0 -0 -0 -0 -1 -1 -1 -1 -1 -1 -1 -0 0 0 0 0 -0 -0 -0 -0 -0 -0 -0 -0 -0 -0 -0 0 0 -0 -0 -0 0 0 1 1 1 2 2 2 1 1 -0 -1 -1 -1 -1 -1 -1 -0 -0 0 1 1 1 1 1 1 1 1 1 1 1 1 1 1 1 1 1 1 1 1 1 1 1 1 1 1 2 2 2 1 0
-0 -0 -0 -0 -0 -0 -0 -0 -0 -0 -0 -0 -0 -0 -0 -0 -0 -1 -1 -1 -1 -1 -0 -0 -1 -1 -1 -1 -1 -1 -0 0 1 1 1 1 1 0 -0 -0 -0 -0 -0 -0 -0 -0 0 1 1 1 1 1 1 1 1 2 2 2 2 1 1 -0 -1 -1 -1 -0 0 1 1 1 1 1 1 1 1 1 1 1 1 1 1 1 1 1 1 1 1 2 2 2 2 2 2 2 1 1 0 0 1 2 2 2 1
0 -0 -0 -0 -0 -0 -0 0 -0 -0 -0 -0 -0 -0 -0 -1 -1 -1 -1 -1 -1 -1 -0 -0 -0 -0 -1 -1 -0 -0 -0 -0 0 0 0 1 1 1 0 -0 -0 -0 -0 -0 -0 -0 -0 0 1 1 1 1 1 2 2 3 3 2 1 0 -0 -1 -0 -0 0 1 1 1 1 1 1 1 1 1 1 1 1 0 0 0 0 0 0 1 1 1 1 2 2 2 2 2 2 2 2 1 1 0 0 1 1 1 0
0 0 0 -0 -0 -0 0 0 -0 -0 -0 -0 -0 -0 -1 -1 -1 -1 -1 -1 -0 -0 -1 -0 -0 -0 -0 -0 -0 -0 -0 -0 -0 -1 -1 -0 -0 -0 -0 -0 -0 -1 -1 -0 -0 -0 -0 0 0 1 0 1 1 2 3 3 2 1 0 -0 -0 -0 0 0 1 1 1 1 1 1 1 1 1 1 1 0 0 -0 -0 -0 0 0 0 0 1 1 1 1 1 1 1 2 2 2 2 1 1 1 1 0 -0 -1 -1
0 0 0 -0 -0 -0 0 -0 -0 -0 -0 -0 -0 -0 -0 -1 -1 -1 -1 -1 -0 -0 -1 -1 -0 -0 0 -0 -0 -0 -0 -0 -1 -1 -1 -1 -1 -1 -0 -0 -1 -1 -1 -1 -1 -1 -0 -0 -0 -0 0 1 2 2 3 2 1 1 0 0 0 0 0 0 0 0 0 0 1 1 1 1 1 0 0 0 -0 -0 -0 -0 -0 0 0 0 1 1 1 1 1 1 1 1 1 1 1 1 1 1 1 0 -0 -1 -1
-0 0 -0 -0 -0 -0 -0 -0 -1 -1 -0 -0 0 -0 -0 -1 -1 -1 -1 -1 -0 -0 -0 -1 -1 -1 -0 0 0 0 0 -0 -1 -2 -2 -2 -2 -2 -1 -1 -0 -0 -0 -1 -1 -1 -0 -0 -0 -0 1 2 2 3 2 2 1 1 1 1 0 0 -0 -0 -0 -0 -0 0 0 0 0 0 -0 -0 -0 -1 -1 -1 -1 -1 -0 -0 -0 0 1 1 1 1 1 1 1 1 1 1 1 1 1 1 1 1 1 0 0
-0 -0 -0 -0 -0 -0 -0 -0 -1 -1 -0 0 0 0 -0 -0 -1 -1 -1 -1 -0 -0 -0 -1 -1 -1 -1 -0 -0 -0 -0 -0 -1 -1 -2 -2 -2 -1 -1 -1 -0 0 0 -0 -1 -1 -1 -1 -0 -0 1 2 2 2 2 1 1 1 1 0 0 -0 -0 -0 -0 -0 -0 -0 -0 -0 -1 -1 -1 -1 -1 -1 -1 -1 -1 -1 -1 -1 -0 -0 0 0 0 -0 0 1 1 1 1 1 1 1 1 2 2 2 2 2 2
-0 -0 -0 -0 -0 -0 -0 -0 -0 -0 0 0 -0 -0 -0 -0 -0 -0 -1 -0 -0 -0 0 -0 -1 -1 -1 -1 -1 -1 -1 -1 -1 -1 -2 -1 -1 -1 -0 -0 0 0 1 0 -0 -0 -1 -1 -0 0 1 1 1 2 1 1 1 0 -0 -0 -0 -0 -0 -0 -0 -0 -0 -0 -1 -1 -2 -2 -2 -2 -2 -2 -2 -1 -1 -1 -1 -1 -1 -0 -0 -0 -0 -0 -0 0 1 1 0 0 0 1 1 1 2 2 2 2 2
-0 -0 -0 0 0 0 0 -0 -0 -0 0 -0 -0 -0 -0 -0 -0 -0 -0 -0 -0 -0 0 0 -0 -1 -1 -1 -1 -1 -1 -1 -1 -1 -1 -1 -1 -0 0 0 0 0 0 1 0 -0 -1 -1 -0 1 1 0 0 0 0 -0 -1 -1 -1 -1 -1 -1 -0 -0 -0 -0 -0 -0 -1 -2 -3 -3 -3 -3 -3 -2 -1 -1 -0 -0 -0 -0 -1 -0 -0 -0 -1 -1 -0 -0 0 0 0 -0 -0 0 1 1 1 1 1 1 1
-1 -0 -0 0 1 0 0 -0 -0 -0 -0 -0 -0 -1 -0 -0 -0 -0 -0 -0 -0 -0 -0 -0 -0 -0 -1 -1 -1 -0 -0 -1 -1 -1 -1 -1 -1 -0 0 0 -0 -1 -1 0 1 0 -1 -0 0 1 1 -0 -1 -1 -1 -1 -2 -2 -2 -1 -1 -0 -0 -0 -0 -0 -0 -1 -2 -3 -4 -4 -5 -4 -4 -3 -2 -1 -0 -0 -0 -0 -1 -1 -0 -0 -1 -1 -1 -0 -0 -0 -0 -0 -0 0 1 1 1 1 1 1 1
-1 -0 0 1 1 0 0 -0 -0 -0 0 -0 -0 -0 -0 -0 -0 -0 -1 -1 -0 -0 -0 -0 -0 -0 -0 0 0 0 1 -0 -1 -1 -1 -1 -1 -1 -1 -0 -0 -1 -2 -1 -0 -0 -1 -0 0 0 -0 -1 -1 -1 -2 -2 -2 -2 -2 -1 -0 0 0 -0 -0 -0 -1 -1 -2 -4 -5 -5 -5 -4 -4 -3 -2 -2 -1 -0 -0 -0 -1 -1 -1 -1 -1 -1 -1 -1 -0 -0 -0 -0 -0 0 0 1 1 0 0 1 1
-1 -0 1 1 1 0 0 -0 -0 -0 0 -0 -0 -0 0 0 -0 -0 -1 -1 -0 -0 -0 -0 -0 -0 -0 0 1 1 1 0 -1 -1 -2 -1 -0 -0 -1 -1 -0 -0 -1 -1 -2 -1 -1 -1 -0 -0 -1 -1 -1 -1 -1 -1 -1 -1 -0 -0 0 1 0 -0 -0 -1 -1 -2 -3 -5 -6 -5 -4 -4 -3 -3 -2 -2 -2 -1 -1 -1 -1 -1 -1 -1 -1 -1 -1 -1 -0 -0 -0 -0 -0 0 -0 -0 -0 -1 -1 -1 -0
-1 -0 1 1 1 0 0 -0 -0 -0 -0 -0 0 0 0 -0 -0 -0 -1 -0 -0 -0 0 -0 -0 -1 -1 -0 -0 0 1 0 -0 -1 -2 -2 -1 1 2 0 -0 -1 -1 -2 -2 -3 -2 -1 -1 -0 -0 0 -0 -0 -1 -1 -1 -0 0 0 0 -0 -0 -0 -0 -1 -1 -2 -3 -5 -6 -5 -4 -3 -3 -2 -2 -2 -2 -2 -2 -2 -1 -1 -1 -1 -1 -1 -1 -1 -1 -1 -1 -1 -1 -1 -1 -1 -2 -2 -3 -3 -2
-0 0 1 1 0 0 0 -0 -0 -0 -0 -0 -0 0 0 -0 -0 -0 -0 -0 -0 0 0 -0 -0 -1 -1 -1 -1 -1 -0 -0 -0 -1 -1 -4 -5 -5 -4 -2 -2 -2 -3 -3 -3 -3 -2 -1 -1 0 1 1 0 -1 -2 -1 -1 -0 -0 -1 -1 -1 -1 -1 -0 0 0 -1 -3 -4 -5 -4 -3 -2 -2 -2 -2 -3 -3 -3 -3 -3 -2 -2 -1 -1 -1 -1 -1 -1 -1 -1 -1 -1 -1 -1 -1 -1 -2 -2 -2 -2 -2
-0 -0 0 0 0 0 0 0 -0 -0 -0 -0 -0 -0 0 -0 -0 -0 0 0 1 1 -0 -0 -1 -1 -1 -1 -2 -2 -1 -1 -1 -2 -3 -4 -6 -8 -12 -10 -7 -4 -3 -2 -3 -3 -2 -1 -0 1 2 1 -1 -2 -3 -2 -2 -2 -2 -2 -2 -1 -1 -0 1 1 1 -0 -2 -3 -4 -4 -2 -2 -2 -2 -3 -3 -3 -3 -3 -3 -3 -3 -2 -2 -2 -1 -1 -1 -1 -1 -1 -1 -1 -1 -1 -1 -2 -2 -2 -2 -2
-0 -0 0 0 0 0 0 0 -0 -0 -0 -0 -0 -0 -0 0 0 0 0 1 1 1 1 -1 -2 -2 -0 -0 -1 -1 -0 -2 -2 -3 -3 -4 -2 -1 -4 -9 -10 -9 -6 -4 -2 -1 -1 -0 0 1 2 -1 -2 -4 -3 -3 -3 -3 -3 -2 -1 -0 -0 1 1 1 1 -0 -2 -3 -3 -3 -2 -2 -2 -2 -2 -2 -2 -2 -2 -2 -2 -2 -2 -3 -2 -2 -2 -1 -1 -1 -1 -1 -1 -1 -1 -1 -1 -2 -2 -2 -2
-0 -0 0 0 0 0 0 0 -0 -0 -0 -0 -0 -0 -0 -0 -0 0 0 1 1 2 1 0 -1 -3 -2 -0 -1 -2 -1 -2 -2 -2 -1 -2 -1 1 2 -4 -8 -11 -12 -13 -9 -2 3 1 -0 0 2 -1 -3 -4 -4 -3 -2 -1 -1 -0 1 1 1 2 2 2 1 -1 -2 -2 -2 -2 -1 -1 -1 -1 -1 -1 -1 -1 -1 -1 -1 -1 -1 -1 -1 -1 -1 -1 -1 -0 -0 -0 -0 -0 -0 -1 -1 -1 -1 -1 -2
-0 -0 -0 0 1 1 0 -0 -0 -0 -0 -1 -0 -0 -0 -0 -0 -0 -0 1 1 1 1 0 -0 -1 -2 -2 -3 -4 -3 -2 -2 -2 -1 -1 -0 -0 -1 -2 -3 -5 -6 -9 -11 -8 3 1 -4 -6 -1 -1 -2 -2 -1 -1 -1 0 2 2 2 2 3 4 4 2 -0 -2 -2 -2 -2 -1 -1 -0 -0 -0 -0 -0 -0 -0 -0 -0 -0 -0 -0 -0 -0 -0 -0 -0 -1 -1 -1 -1 -1 -1 -1 -1 -1 -1 -1 -2 -2
-0 -0 -0 0 0 0 -0 -0 -0 -0 -0 -1 -1 -1 -0 -0 -0 -1 -1 0 1 1 0 0 1 1 1 -1 -2 -2 -2 -2 -1 -0 -2 -0 3 4 -1 -1 1 1 -1 -2 -4 -5 -3 -3 -5 -6 -3 -1 -1 -1 1 1 0 -0 1 1 2 3 4 5 3 1 -1 -2 -2 -2 -1 -1 -1 -0 -0 -0 -0 -0 -0 -0 -0 -0 -0 -0 -0 -0 -0 -1 -1 -1 -1 -1 -1 -2 -2 -2 -3 -3 -3 -2 -2 -2 -2
-0 0 0 1 0 0 -0 -0 -0 -0 -1 -1 -1 -1 -1 -0 0 0 0 1 1 1 -0 0 1 2 1 -1 -1 1 2 -1 0 2 1 1 4 7 3 -1 -4 -4 -3 -1 0 1 -2 -4 -5 -5 -2 1 0 -1 -1 0 0 -0 -1 -0 1 2 4 3 2 -0 -2 -2 -1 -1 -1 -0 -0 -0 -0 -0 -1 -1 -1 -0 -0 -0 -0 -0 -0 -0 -0 -1 -2 -2 -2 -3 -3 -2 -3 -4 -5 -5 -5 -4 -3 -2 -2
0 0 1 1 1 0 0 -0 -0 -0 -0 -1 -1 -0 -0 0 1 1 2 3 3 3 1 0 -0 -0 -1 -2 -1 1 3 -0 -0 3 7 4 5 5 3 1 -1 -3 -6 -4 -3 -2 0 -0 -6 -10 -5 1 0 -2 -3 -3 -2 -2 -2 -1 -0 1 2 2 1 -1 -2 -1 -1 -1 -1 -0 -0 -1 -1 -1 -1 -1 -1 -1 -1 -1 -1 -1 -1 -2 -2 -2 -2 -3 -3 -4 -4 -4 -3 -4 -6 -7 -6 -4 -3 -3 -3
-0 0 1 1 1 1 1 0 -0 -0 -0 -0 0 0 1 1 1 1 1 3 4 4 3 -0 -2 -2 -2 -1 -0 0 1 0 -0 2 8 8 5 2 0 1 2 2 0 -1 -2 -3 -1 1 -2 -7 -11 -4 -1 -1 -2 -3 -4 -4 -3 -2 -0 1 2 2 1 -1 -3 -2 -1 -1 -1 -1 -1 -1 -2 -2 -2 -2 -2 -2 -2 -2 -2 -3 -3 -3 -3 -3 -3 -3 -4 -4 -4 -4 -3 -5 -6 -7 -6 -4 -4 -3 -3
-0 -0 1 1 1 1 1 0 0 0 0 1 1 1 1 1 1 1 0 2 3 4 2 -0 -1 -2 -2 -1 -1 -0 -0 -0 -0 1 4 6 4 1 -1 0 0 0 0 1 2 2 0 -3 -2 -2 -9 -11 -6 0 1 -0 -2 -3 -4 -3 -1 1 2 2 1 -1 -3 -3 -2 -1 -2 -2 -2 -2 -2 -2 -2 -2 -3 -3 -3 -3 -4 -4 -4 -4 -4 -3 -2 -2 -2 -2 -2 -2 -3 -5 -6 -6 -5 -4 -3 -3 -4
-0 -0 1 1 1 1 1 1 0 0 1 1 1 1 1 1 1 1 1 1 1 1 -0 -1 -1 -1 -0 0 -0 -0 0 0 1 2 5 4 1 -0 -1 -1 -2 -2 0 4 6 6 4 0 -2 -3 -2 -8 -12 -10 0 1 -0 -2 -3 -2 -1 0 1 2 1 -1 -4 -4 -3 -2 -2 -2 -3 -3 -3 -3 -3 -3 -3 -3 -4 -4 -4 -5 -5 -4 -3 -2 -2 -1 -1 -1 -1 -1 -3 -5 -5 -5 -5 -4 -4 -4 -4
-0 0 1 1 1 1 1 1 0 0 1 1 1 1 2 1 1 1 1 0 -1 -2 -2 -2 -1 -1 -0 -0 0 1 2 1 2 5 7 2 -1 -2 -0 -1 -1 -0 3 6 7 6 3 2 1 1 2 1 -6 -13 -14 -3 1 1 -0 -0 1 1 2 2 1 -1 -3 -4 -3 -3 -3 -3 -3 -3 -3 -3 -4 -4 -4 -4 -4 -4 -4 -4 -4 -4 -3 -2 -2 -2 -2 -2 -3 -3 -4 -5 -5 -5 -5 -4 -4 -4 -5
-0 0 0 1 1 0 0 0 0 0 1 1 1 1 1 1 1 2 2 1 -1 -2 -2 -2 -1 -0 -0 -0 -0 1 3 4 5 5 4 1 -1 -1 -0 0 0 1 3 4 4 3 1 -0 -0 1 2 2 -0 -4 -11 -8 -3 1 1 2 3 4 4 3 1 -1 -3 -3 -3 -3 -3 -3 -3 -3 -4 -4 -4 -4 -4 -4 -4 -4 -4 -4 -4 -4 -4 -3 -3 -3 -3 -4 -4 -4 -5 -5 -5 -4 -4 -3 -4 -4 -5
Height
1541 1541 1542 1542 1542 1542 1542 1542 1542 1542 1543 1543 1543 1543 1542 1543 1543 1543 1542 1542 1542 1541 1541 1541 1541 1541 1541 1541 1541 1541 1541 1541 1541 1541 1541 1541 1541 1541 1541 1541 1541 1540 1541 1540 1540 1540 1539 1539 1539 1539 1539 1538 1538 1538 1538 1538 1538 1538 1537 1537 1537 1537 1537 1537 1537 1536 1536 1535 1535 1534 1534 1534 1533 1533 1532 1532 1531 1531 1530 1530 1530 1529 1529 1529 1529 1528 1528 1528 1527 1527 1526 1526 1525 1525 1524 1524 1523 1523 1522 1521 1521 1521 1520
1541 1542 1542 1542 1542 1542 1542 1543 1542 1542 1542 1543 1543 1543 1543 1543 1543 1543 1543 1542 1542 1542 1542 1542 1542 1542 1542 1542 1542 1542 1542 1542 1542 1542 1541 1541 1541 1541 1541 1541 1541 1541 1541 1541 1541 1540 1540 1540 1539 1539 1539 1539 1539 1539 1539 1539 1539 1538 1538 1538 1538 1537 1537 1537 1537 1537 1536 1536 1535 1535 1534 1534 1534 1533 1533 1532 1532 1531 1531 1531 1530 1530 1529 1529 1529 1529 1528 1528 1528 1527 1527 1526 1526 1525 1524 1524 1524 1523 1522 1522 1521 1521 1520
1542 1542 1543 1543 1542 1542 1543 1544 1544 1543 1543 1543 1544 1544 1544 1543 1543 1543 1543 1543 1542 1542 1542 1542 1542 1542 1542 1542 1542 1542 1542 1542 1542 1542 1542 1542 1542 1542 1542 1542 1542 1542 1541 1541 1541 1541 1540 1540 1540 1540 1540 1539 1539 1539 1539 1539 1539 1539 1539 1539 1538 1538 1538 1538 1538 1537 1537 1536 1536 1535 1535 1534 1534 1534 1533 1533 1532 1532 1531 1531 1531 1530 1530 1530 1529 1529 1529 1528 1528 1527 1527 1527 1526 1525 1525 1524 1524 1523 1523 1522 1522 1521 1521
1543 1543 1543 1543 1543 1544 1545 1545 1545 1545 1544 1544 1545 1545 1544 1544 1544 1544 1543 1543 1543 1543 1543 1543 1543 1543 1543 1543 1543 1543 1543 1543 1543 1543 1542 1542 1542 1542 1542 1542 1542 1542 1542 1542 1541 1541 1541 1541 1541 1540 1540 1540 1540 1540 1539 1539 1539 1539 1539 1539 1539 1538 1538 1539 1539 1538 1537 1537 1536 1536 1535 1535 1534 1534 1534 1533 1533 1533 1532 1532 1531 1531 1531 1530 1530 1529 1529 1529 1528 1528 1527 1527 1526 1526 1525 1524 1524 1524 1523 1523 1522 1521 1521
1543 1543 1543 1543 1543 1544 1544 1544 1545 1545 1544 1544 1545 1545 1544 1544 1544 1544 1544 1543 1543 1543 1543 1543 1543 1543 1543 1543 1543 1543 1543 1543 1543 1543 1543 1543 1543 1543 1542 1542 1542 1542 1542 1542 1542 1542 1541 1541 1541 1541 1541 1540 1540 1540 1540 1540 1539 1539 1539 1539 1539 1539 1539 1539 1539 1538 1538 1537 1537 1536 1536 1535 1535 1534 1534 1534 1534 1533 1533 1532 1532 1531 1531 1531 1530 1530 1529 1529 1529 1528 1528 1527 1526 1526 1525 1525 1524 1524 1523 1523 1522 1522 1521
1543 1543 1543 1543 1543 1543 1544 1544 1545 1545 1545 1545 1546 1545 1545 1544 1544 1544 1544 1544 1544 1544 1544 1544 1544 1544 1544 1544 1544 1544 1544 1544 1543 1543 1543 1543 1543 1543 1543 1543 1543 1542 1542 1542 1542 1542 1542 1542 1541 1541 1541 1541 1541 1540 1540 1540 1540 1540 1539 1539 1539 1539 1539 1539 1539 1539 1538 1538 1537 1537 1536 1536 1535 1535 1535 1534 1534 1534 1533 1533 1532 1532 1532 1531 1531 1530 1530 1529 1529 1529 1528 1527 1527 1526 1526 1525 1525 1524 1524 1523 1523 1522 1521
1543 1543 1543 1543 1544 1544 1544 1545 1545 1545 1545 1545 1545 1545 1545 1544 1544 1544 1544 1544 1544 1544 1544 1544 1544 1544 1544 1544 1544 1544 1544 1544 1544 1544 1544 1543 1543 1543 1543 1543 1543 1543 1543 1543 1543 1542 1542 1542 1542 1542 1542 1541 1541 1541 1541 1540 1540 1540 1540 1540 1539 1539 1539 1539 1539 1539 1538 1538 1538 1537 1537 1536 1536 1536 1535 1535 1534 1534 1534 1533 1533 1533 1532 1532 1531 1531 1530 1530 1529 1529 1528 1528 1527 1527 1526 1525 1525 1524 1524 1523 1523 1522 1522
1543 1543 1543 1543 1544 1544 1544 1545 1545 1545 1545 1545 1545 1544 1544 1544 1545 1544 1544 1544 1544 1544 1544 1544 1544 1544 1544 1544 1544 1544 1544 1544 1544 1544 1544 1544 1544 1544 1544 1543 1543 1543 1543 1543 1543 1543 1543 1542 1542 1542 1542 1542 1542 1541 1541 1541 1540 1540 1540 1540 1540 1540 1540 1539 1539 1539 1539 1539 1538 1538 1537 1537 1537 1536 1536 1535 1535 1535 1534 1534 1534 1533 1533 1532 1532 1531 1531 1530 1530 1529 1529 1528 1528 1527 1526 1526 1525 1525 1524 1524 1523 1522 1522
1543 1543 1543 1543 1544 1544 1544 1544 1545 1545 1544 1544 1544 1545 1545 1545 1545 1545 1545 1545 1545 1545 1545 1545 1545 1545 1545 1545 1545 1545 1545 1545 1545 1544 1544 1544 1544 1544 1544 1544 1544 1544 1543 1543 1543 1543 1543 1543 1543 1543 1542 1542 1542 1542 1541 1541 1541 1541 1540 1540 1540 1540 1540 1540 1540 1539 1539 1539 1539 1538 1538 1537 1537 1537 1536 1536 1535 1535 1535 1534 1534 1533 1533 1533 1532 1532 1531 1531 1530 1529 1529 1529 1528 1527 1527 1526 1526 1525 1524 1524 1523 1523 1522
1543 1543 1543 1543 1544 1544 1544 1544 1545 1545 1544 1544 1545 1545 1545 1545 1545 1545 1545 1545 1545 1545 1545 1545 1545 1545 1545 1545 1545 1545 1545 1545 1545 1545 1545 1545 1544 1544 1544 1544 1544 1544 1544 1544 1544 1544 1543 1543 1543 1543 1543 1543 1542 1542 1542 1541 1541 1541 1541 1541 1540 1540 1540 1540 1540 1540 1539 1539 1539 1539 1538 1538 1538 1537 1537 1536 1536 1535 1535 1535 1534 1534 1533 1533 1532 1532 1531 1531 1530 1530 1529 1529 1528 1528 1527 1527 1526 1525 1525 1524 1524 1523 1522
1543 1543 1543 1543 1543 1544 1544 1545 1545 1545 1544 1544 1545 1545 1545 1545 1545 1545 1545 1545 1545 1545 1545 1546 1546 1546 1546 1546 1546 1546 1546 1546 1545 1545 1545 1545 1545 1545 1545 1544 1544 1544 1544 1544 1544 1544 1544 1544 1543 1543 1543 1543 1543 1542 1542 1542 1541 1541 1541 1541 1541 1541 1541 1540 1540 1540 1540 1539 1539 1539 1539 1538 1538 1538 1537 1537 1536 1536 1535 1535 1534 1534 1534 1533 1533 1532 1532 1531 1531 1530 1530 1529 1529 1528 1528 1527 1526 1526 1525 1524 1524 1523 1523
1543 1543 1543 1543 1544 1544 1544 1544 1544 1544 1544 1545 1545 1545 1545 1545 1545 1545 1546 1546 1546 1546 1546 1546 1546 1546 1546 1546 1546 1546 1546 1546 1546 1546 1546 1546 1545 1545 1545 1545 1545 1544 1544 1544 1544 1544 1544 1544 1544 1544 1544 1543 1543 1543 1542 1542 1542 1542 1542 1541 1541 1541 1541 1541 1541 1540 1540 1540 1540 1539 1539 1539 1538 1538 1538 1537 1537 1536 1536 1535 1535 1534 1534 1534 1533 1533 1532 1531 1531 1530 1530 1529 1529 1528 1528 1527 1527 1526 1525 1525 1524 1524 1523
1543 1543 1543 1543 1544 1544 1544 1544 1544 1545 1545 1545 1545 1545 1546 1546 1546 1546 1546 1546 1546 1546 1546 1546 1546 1546 1546 1546 1546 1546 1546 1546 1546 1546 1546 1546 1546 1546 1545 1545 1545 1545 1545 1544 1544 1544 1544 1544 1544 1544 1544 1544 1544 1543 1543 1543 1542 1542 1542 1542 1542 1542 1542 1541 1541 1541 1540 1540 1540 1540 1539 1539 1539 1538 1538 1537 1537 1536 1536 1536 1535 1535 1534 1534 1533 1533 1532 1532 1531 1531 1530 1530 1529 1529 1528 1527 1527 1526 1525 1525 1524 1524 1523
1543 1543 1543 1543 1544 1544 1544 1544 1545 1545 1545 1545 1546 1546 1546 1546 1546 1546 1546 1546 1546 1546 1547 1547 1547 1547 1547 1547 1547 1547 1546 1546 1546 1546 1546 1546 1546 1546 1546 1546 1545 1545 1545 1545 1545 1544 1544 1544 1544 1544 1544 1544 1544 1544 1543 1543 1543 1543 1542 1542 1542 1542 1542 1542 1541 1541 1541 1541 1540 1540 1540 1539 1539 1539 1538 1538 1537 1537 1536 1536 1535 1535 1534 1534 1534 1533 1532 1532 1531 1531 1530 1530 1529 1529 1528 1527 1527 1526 1525 1525 1524 1524 1523
1543 1544 1544 1544 1544 1544 1544 1545 1545 1545 1546 1546 1546 1546 1546 1546 1546 1546 1547 1547 1547 1547 1547 1547 1547 1547 1547 1547 1547 1547 1547 1547 1547 1547 1546 1546 1546 1546 1546 1546 1546 1545 1545 1545 1545 1545 1544 1544 1544 1544 1544 1544 1544 1544 1544 1544 1543 1543 1543 1543 1542 1542 1542 1542 1542 1541 1541 1541 1541 1540 1540 1539 1539 1539 1539 1538 1538 1537 1537 1536 1536 1535 1534 1534 1534 1533 1533 1532 1531 1531 1530 1530 1529 1529 1528 1527 1527 1526 1525 1525 1524 1524 1523
1544 1544 1544 1544 1544 1544 1544 1545 1545 1546 1546 1546 1546 1547 1547 1547 1547 1547 1547 1547 1547 1547 1547 1547 1547 1547 1547 1547 1547 1547 1547 1547 1547 1547 1547 1547 1547 1546 1546 1546 1546 1546 1546 1545 1545 1545 1545 1545 1545 1545 1544 1544 1544 1544 1544 1544 1544 1544 1543 1543 1543 1543 1543 1543 1542 1542 1541 1541 1541 1541 1540 1540 1539 1539 1539 1538 1538 1537 1537 1536 1536 1535 1535 1534 1534 1533 1533 1532 1531 1531 1530 1529 1529 1528 1528 1527 1526 1526 1525 1524 1524 1523 1523
1544 1544 1544 1544 1544 1545 1545 1545 1546 1546 1546 1547 1547 1547 1547 1547 1547 1547 1547 1548 1548 1548 1548 1548 1548 1548 1548 1548 1548 1548 1548 1548 1547 1547 1547 1547 1547 1547 1547 1546 1546 1546 1546 1546 1545 1545 1545 1545 1545 1545 1545 1545 1545 1544 1544 1544 1544 1544 1544 1543 1543 1543 1543 1542 1542 1542 1542 1541 1541 1541 1540 1540 1540 1539 1539 1539 1538 1538 1537 1536 1536 1535 1535 1534 1534 1533 1533 1532 1531 1531 1530 1529 1529 1528 1528 1527 1526 1525 1525 1524 1524 1523 1522
1544 1544 1545 1545 1545 1545 1546 1546 1546 1547 1547 1547 1547 1548 1548 1548 1548 1548 1548 1548 1548 1548 1548 1548 1548 1548 1548 1548 1548 1548 1548 1548 1548 1548 1548 1547 1547 1547 1547 1547 1547 1546 1546 1546 1546 1546 1545 1545 1545 1545 1545 1545 1545 1545 1544 1544 1544 1544 1544 1544 1543 1543 1543 1543 1542 1542 1542 1541 1541 1541 1541 1540 1540 1539 1539 1539 1538 1538 1537 1536 1536 1535 1535 1534 1534 1533 1532 1532 1531 1530 1530 1529 1529 1528 1527 1526 1526 1525 1524 1524 1523 1522 1522
1545 1545 1545 1545 1546 1546 1546 1546 1547 1547 1547 1548 1548 1548 1548 1548 1548 1548 1548 1548 1548 1549 1549 1549 1549 1549 1549 1549 1549 1548 1548 1548 1548 1548 1548 1548 1548 1548 1547 1547 1547 1547 1546 1546 1546 1546 1546 1546 1545 1545 1545 1545 1545 1545 1545 1545 1544 1544 1544 1544 1544 1543 1543 1543 1543 1542 1542 1542 1541 1541 1541 1540 1540 1539 1539 1539 1538 1538 1537 1536 1536 1535 1534 1534 1533 1533 1532 1531 1531 1530 1529 1529 1528 1527 1527 1526 1525 1524 1524 1523 1522 1522 1521
1545 1546 1546 1546 1546 1546 1547 1547 1547 1547 1548 1548 1548 1548 1548 1549 1549 1549 1549 1549 1549 1549 1549 1549 1549 1549 1549 1549 1549 1549 1549 1549 1548 1548 1548 1548 1548 1548 1548 1547 1547 1547 1547 1547 1547 1546 1546 1546 1546 1546 1545 1545 1545 1545 1545 1545 1545 1544 1544 1544 1544 1544 1543 1543 1543 1543 1542 1542 1541 1541 1541 1540 1540 1539 1539 1539 1538 1537 1537 1536 1535 1535 1534 1534 1533 1532 1532 1531 1530 1529 1529 1528 1528 1527 1526 1525 1525 1524 1523 1523 1522 1521 1520
1546 1546 1546 1546 1547 1547 1547 1547 1547 1548 1548 1548 1548 1549 1549 1549 1549 1549 1549 1549 1549 1549 1549 1549 1549 1549 1549 1549 1549 1549 1549 1549 1549 1549 1548 1548 1548 1548 1548 1548 1548 1547 1547 1547 1547 1547 1547 1546 1546 1546 1546 1546 1545 1545 1545 1545 1545 1545 1544 1544 1544 1544 1544 1543 1543 1543 1542 1542 1541 1541 1541 1540 1540 1539 1539 1538 1538 1537 1536 1536 1535 1534 1534 1533 1533 1532 1531 1530 1530 1529 1528 1528 1527 1526 1525 1525 1524 1523 1523 1522 1521 1520 1519
1546 1546 1547 1547 1547 1547 1547 1548 1548 1548 1548 1549 1549 1549 1549 1549 1549 1549 1549 1549 1549 1550 1550 1550 1550 1550 1549 1549 1549 1549 1549 1549 1549 1549 1549 1549 1549 1548 1548 1548 1548 1548 1548 1547 1547 1547 1547 1547 1546 1546 1546 1546 1546 1545 1545 1545 1545 1545 1545 1544 1544 1544 1544 1544 1543 1543 1542 1542 1541 1541 1540 1540 1539 1539 1539 1538 1537 1537 1536 1535 1535 1534 1534 1533 1532 1531 1531 1530 1529 1529 1528 1527 1526 1525 1525 1524 1523 1522 1522 1521 1520 1519 1519
1546 1547 1547 1547 1547 1547 1548 1548 1548 1548 1549 1549 1549 1549 1549 1549 1549 1549 1550 1550 1550 1550 1550 1550 1550 1550 1550 1550 1550 1549 1549 1549 1549 1549 1549 1549 1549 1549 1549 1548 1548 1548 1548 1548 1548 1547 1547 1547 1547 1547 1546 1546 1546 1546 1545 1545 1545 1545 1545 1544 1544 1544 1544 1544 1543 1543 1542 1542 1541 1541 1540 1540 1539 1539 1538 1538 1537 1536 1536 1535 1534 1534 1533 1532 1531 1531 1530 1529 1529 1528 1527 1526 1525 1524 1524 1523 1522 1521 1521 1520 1519 1518 1517
1547 1547 1547 1547 1548 1548 1548 1548 1548 1549 1549 1549 1549 1549 1549 1549 1550 1550 1550 1550 1550 1550 1550 1550 1550 1550 1550 1550 1550 1550 1550 1550 1549 1549 1549 1549 1549 1549 1549 1549 1549 1549 1548 1548 1548 1548 1548 1547 1547 1547 1546 1546 1546 1546 1545 1545 1545 1545 1544 1544 1544 1544 1544 1543 1543 1543 1542 1542 1541 1541 1540 1539 1539 1539 1538 1537 1536 1536 1535 1534 1534 1533 1532 1532 1531 1530 1529 1529 1528 1527 1526 1525 1524 1524 1523 1522 1521 1520 1519 1519 1518 1517 1516
1547 1547 1547 1548 1548 1548 1548 1549 1549 1549 1549 1549 1549 1549 1550 1550 1550 1550 1550 1550 1550 1550 1550 1550 1550 1550 1550 1550 1550 1550 1550 1550 1550 1549 1549 1549 1549 1549 1549 1549 1549 1549 1549 1548 1548 1548 1548 1548 1547 1547 1547 1546 1546 1546 1546 1545 1545 1545 1544 1544 1544 1544 1543 1543 1543 1542 1542 1541 1541 1540 1539 1539 1539 1538 1537 1537 1536 1535 1534 1534 1533 1532 1531 1531 1530 1529 1528 1528 1527 1526 1525 1524 1523 1523 1522 1521 1520 1519 1519 1518 1517 1516 1515
1547 1547 1547 1548 1548 1548 1549 1549 1549 1549 1549 1549 1550 1550 1550 1550 1550 1550 1550 1550 1550 1550 1551 1551 1551 1551 1551 1550 1550 1550 1550 1550 1550 1550 1549 1549 1549 1549 1549 1549 1549 1549 1549 1549 1548 1548 1548 1548 1548 1547 1547 1547 1546 1546 1546 1545 1545 1545 1544 1544 1544 1544 1543 1543 1542 1542 1541 1541 1540 1540 1539 1539 1538 1537 1537 1536 1535 1534 1534 1533 1532 1531 1531 1530 1529 1528 1527 1526 1526 1525 1524 1523 1522 1521 1520 1520 1519 1518 1517 1516 1515 1515 1514
1547 1547 1548 1548 1548 1548 1549 1549 1549 1549 1549 1550 1550 1550 1550 1550 1550 1550 1551 1551 1551 1551 1551 1551 1551 1551 1551 1551 1551 1550 1550 1550 1550 1550 1550 1550 1549 1549 1549 1549 1549 1549 1549 1549 1548 1548 1548 1548 1548 1547 1547 1547 1547 1546 1546 1546 1545 1545 1544 1544 1544 1543 1543 1543 1542 1542 1541 1540 1540 1539 1539 1538 1537 1537 1536 1535 1534 1534 1533 1532 1531 1530 1529 1529 1528 1527 1526 1525 1524 1524 1523 1522 1521 1520 1519 1519 1518 1517 1516 1515 1514 1514 1513
1547 1548 1548 1548 1548 1549 1549 1549 1549 1549 1549 1550 1550 1550 1550 1550 1550 1551 1551 1551 1551 1551 1551 1551 1551 1551 1551 1551 1551 1551 1551 1550 1550 1550 1550 1550 1550 1549 1549 1549 1549 1549 1549 1549 1548 1548 1548 1548 1548 1548 1547 1547 1547 1546 1546 1546 1545 1545 1544 1544 1544 1543 1543 1542 1542 1541 1541 1540 1539 1539 1538 1537 1537 1536 1535 1534 1534 1533 1532 1531 1530 1529 1529 1528 1527 1526 1525 1524 1523 1522 1522 1521 1520 1519 1518 1517 1516 1515 1514 1514 1513 1512 1511
1547 1548 1548 1548 1548 1549 1549 1549 1549 1549 1550 1550 1550 1550 1550 1550 1551 1551 1551 1551 1551 1551 1551 1551 1551 1551 1551 1551 1551 1551 1551 1551 1550 1550 1550 1550 1550 1549 1549 1549 1549 1549 1549 1549 1548 1548 1548 1548 1548 1547 1547 1547 1547 1546 1546 1546 1545 1545 1544 1544 1544 1543 1543 1542 1541 1541 1540 1539 1539 1538 1537 1537 1536 1535 1534 1534 1533 1532 1531 1530 1529 1528 1528 1527 1526 1525 1524 1523 1522 1521 1520 1519 1519 1518 1517 1516 1515 1514 1513 1512 1511 1511 1510
1547 1548 1548 1548 1548 1549 1549 1549 1549 1550 1550 1550 1550 1550 1550 1550 1551 1551 1551 1551 1551 1551 1551 1551 1551 1551 1551 1551 1551 1551 1551 1551 1550 1550 1550 1550 1550 1550 1549 1549 1549 1549 1549 1549 1548 1548 1548 1548 1547 1547 1547 1547 1546 1546 1546 1545 1545 1545 1544 1544 1543 1543 1542 1542 1541 1540 1540 1539 1538 1537 1537 1536 1535 1534 1533 1532 1531 1531 1530 1529 1528 1527 1526 1525 1524 1524 1523 1522 1521 1520 1519 1518 1518 1517 1516 1515 1514 1513 1512 1511 1510 1509 1509
1547 1548 1548 1548 1549 1549 1549 1549 1549 1550 1550 1550 1550 1550 1550 1551 1551 1551 1551 1551 1551 1551 1551 1551 1551 1551 1551 1551 1551 1551 1551 1551 1550 1550 1550 1550 1550 1550 1549 1549 1549 1549 1549 1548 1548 1548 1548 1547 1547 1547 1547 1546 1546 1546 1545 1545 1545 1544 1544 1543 1543 1542 1542 1541 1540 1539 1539 1538 1537 1536 1535 1534 1534 1533 1532 1531 1530 1529 1529 1528 1527 1526 1525 1524 1523 1522 1521 1520 1519 1519 1518 1517 1516 1515 1514 1514 1513 1512 1511 1510 1509 1508 1507
1547 1548 1548 1548 1549 1549 1549 1549 1549 1550 1550 1550 1550 1550 1550 1551 1551 1551 1551 1551 1551 1551 1551 1551 1551 1551 1551 1551 1551 1551 1551 1551 1551 1550 1550 1550 1550 1550 1549 1549 1549 1549 1549 1548 1548 1548 1547 1547 1547 1546 1546 1546 1546 1545 1545 1544 1544 1544 1543 1543 1542 1541 1541 1540 1539 1539 1538 1537 1536 1535 1534 1533 1532 1531 1530 1529 1529 1528 1527 1526 1525 1524 1524 1523 1522 1521 1520 1519 1518 1517 1516 1515 1515 1514 1513 1512 1512 1511 1510 1509 1508 1507 1506
1547 1548 1548 1548 1549 1549 1549 1549 1549 1550 1550 1550 1550 1550 1550 1551 1551 1551 1551 1551 1551 1551 1551 1551 1551 1551 1551 1551 1551 1551 1551 1551 1551 1550 1550 1550 1550 1549 1549 1549 1549 1549 1548 1548 1548 1547 1547 1547 1546 1546 1546 1545 1545 1545 1544 1544 1544 1543 1543 1542 1541 1540 1540 1539 1538 1537 1536 1535 1534 1534 1533 1532 1531 1530 1529 1528 1527 1527 1526 1525 1524 1523 1522 1521 1520 1519 1518 1517 1516 1515 1515 1514 1513 1512 1511 1511 1510 1509 1509 1508 1507 1505 1504
1547 1548 1548 1548 1549 1549 1549 1549 1550 1550 1550 1550 1550 1550 1550 1551 1551 1551 1551 1551 1551 1551 1551 1551 1551 1551 1551 1551 1551 1551 1551 1551 1550 1550 1550 1550 1550 1549 1549 1549 1549 1548 1548 1548 1547 1547 1547 1546 1546 1546 1545 1545 1544 1544 1544 1543 1543 1542 1542 1541 1540 1539 1539 1538 1537 1536 1535 1534 1533 1532 1531 1530 1529 1529 1528 1527 1526 1525 1524 1524 1523 1521 1520 1519 1519 1518 1517 1516 1515 1514 1513 1512 1511 1510 1510 1509 1508 1507 1507 1506 1505 1504 1503
1547 1547 1548 1548 1549 1549 1549 1549 1550 1550 1550 1550 1550 1550 1550 1550 1551 1551 1551 1551 1551 1551 1551 1551 1551 1551 1551 1551 1551 1551 1551 1550 1550 1550 1550 1550 1550 1549 1549 1549 1549 1548 1548 1547 1547 1547 1546 1546 1546 1545 1545 1544 1544 1544 1543 1543 1542 1542 1541 1540 1539 1539 1538 1537 1536 1535 1534 1533 1532 1531 1530 1529 1529 1528 1527 1526 1525 1524 1523 1522 1521 1520 1519 1518 1517 1516 1515 1514 1514 1513 1511 1510 1509 1509 1508 1507 1506 1506 1505 1504 1503 1502 1501
1547 1547 1548 1548 1548 1549 1549 1549 1549 1550 1550 1550 1550 1550 1550 1550 1550 1551 1551 1551 1551 1551 1551 1551 1551 1551 1551 1551 1550 1550 1550 1550 1550 1550 1550 1550 1549 1549 1549 1549 1548 1548 1547 1547 1547 1546 1546 1546 1545 1545 1544 1544 1544 1543 1543 1542 1542 1541 1540 1539 1538 1537 1536 1535 1534 1534 1533 1532 1531 1530 1529 1529 1528 1527 1526 1525 1524 1523 1522 1521 1520 1519 1518 1517 1516 1515 1514 1514 1512 1511 1510 1509 1508 1507 1506 1505 1505 1504 1503 1502 1501 1501 1500
1547 1547 1547 1548 1548 1549 1549 1549 1549 1549 1550 1550 1550 1550 1550 1550 1550 1550 1551 1551 1551 1551 1551 1551 1551 1550 1550 1550 1550 1550 1550 1550 1550 1550 1550 1549 1549 1549 1549 1548 1548 1547 1547 1547 1546 1546 1546 1545 1545 1544 1544 1544 1543 1543 1542 1541 1541 1540 1539 1538 1537 1536 1535 1534 1534 1533 1532 1532 1531 1529 1529 1528 1527 1526 1525 1524 1523 1522 1521 1520 1519 1518 1517 1516 1515 1514 1514 1513 1511 1510 1509 1508 1507 1506 1505 1504 1503 1502 1502 1501 1500 1499 1498
1547 1547 1547 1548 1548 1548 1549 1549 1549 1549 1549 1550 1550 1550 1550 1550 1550 1550 1550 1550 1550 1550 1550 1550 1550 1550 1550 1550 1550 1550 1550 1550 1550 1549 1549 1549 1549 1549 1548 1548 1547 1547 1547 1546 1546 1545 1545 1545 1544 1544 1543 1543 1542 1542 1541 1541 1540 1539 1538 1537 1536 1535 1534 1534 1533 1533 1532 1531 1530 1529 1528 1527 1525 1524 1524 1523 1522 1521 1520 1519 1518 1517 1516 1515 1514 1513 1512 1511 1510 1509 1508 1507 1506 1505 1504 1503 1501 1500 1500 1499 1498 1497 1496
1546 1547 1547 1547 1548 1548 1549 1549 1549 1549 1549 1549 1550 1550 1550 1550 1550 1550 1550 1550 1550 1550 1550 1550 1550 1550 1550 1550 1550 1550 1549 1549 1549 1549 1549 1549 1548 1548 1548 1547 1547 1547 1546 1546 1545 1545 1544 1544 1544 1543 1543 1542 1542 1541 1540 1540 1539 1538 1537 1536 1535 1535 1534 1534 1533 1532 1531 1530 1529 1528 1527 1525 1524 1523 1522 1521 1521 1520 1519 1518 1517 1516 1515 1514 1513 1512 1511 1510 1509 1508 1506 1505 1504 1503 1502 1501 1500 1499 1498 1497 1496 1494 1494
1546 1546 1547 1547 1548 1548 1548 1549 1549 1549 1549 1549 1549 1550 1550 1550 1550 1550 1550 1550 1550 1550 1550 1550 1550 1550 1550 1550 1550 1549 1549 1549 1549 1549 1548 1548 1548 1548 1547 1547 1547 1546 1546 1545 1545 1544 1544 1544 1543 1543 1542 1541 1541 1540 1539 1539 1538 1537 1536 1536 1535 1534 1534 1533 1532 1531 1530 1529 1528 1527 1526 1524 1523 1522 1521 1520 1519 1519 1518 1517 1516 1515 1514 1513 1511 1510 1509 1508 1507 1506 1505 1504 1503 1501 1500 1499 1498 1497 1496 1495 1494 1493 1491
1546 1546 1547 1547 1547 1548 1548 1548 1549 1549 1549 1549 1549 1549 1550 1550 1550 1550 1550 1550 1550 1550 1550 1550 1550 1550 1550 1550 1549 1549 1549 1549 1549 1548 1548 1548 1547 1547 1547 1547 1546 1546 1545 1545 1544 1544 1543 1543 1542 1542 1541 1541 1540 1539 1539 1538 1537 1536 1536 1535 1535 1534 1533 1532 1531 1530 1529 1528 1527 1525 1524 1523 1522 1521 1520 1519 1519 1518 1517 1515 1514 1513 1512 1511 1509 1509 1507 1506 1505 1504 1503 1502 1501 1499 1498 1497 1496 1495 1494 1493 1492 1490 1489
1545 1546 1546 1547 1547 1547 1548 1548 1548 1549 1549 1549 1549 1549 1549 1549 1550 1549 1550 1550 1550 1550 1550 1550 1549 1549 1549 1549 1549 1549 1549 1549 1548 1548 1548 1547 1547 1547 1547 1546 1546 1546 1545 1544 1544 1543 1543 1542 1542 1541 1540 1540 1539 1539 1538 1537 1537 1536 1536 1535 1534 1534 1532 1531 1530 1529 1528 1527 1525 1524 1523 1522 1521 1520 1519 1519 1518 1516 1515 1514 1513 1511 1510 1509 1508 1507 1505 1504 1503 1502 1501 1500 1499 1498 1496 1495 1494 1493 1492 1491 1490 1489 1488
1545 1545 1546 1546 1546 1547 1547 1548 1548 1548 1548 1549 1549 1549 1549 1549 1549 1549 1549 1549 1549 1549 1549 1549 1549 1549 1549 1549 1549 1549 1549 1548 1548 1548 1547 1547 1547 1547 1546 1546 1546 1545 1545 1544 1544 1543 1542 1542 1541 1540 1540 1539 1539 1538 1538 1537 1537 1536 1535 1534 1534 1533 1532 1530 1529 1528 1527 1526 1524 1523 1522 1521 1520 1519 1518 1517 1516 1515 1514 1513 1511 1510 1509 1508 1506 1505 1504 1503 1502 1501 1499 1498 1497 1496 1494 1494 1492 1491 1490 1489 1488 1487 1485
1545 1545 1545 1546 1546 1547 1547 1547 1548 1548 1548 1548 1549 1549 1549 1549 1549 1549 1549 1549 1549 1549 1549 1549 1549 1549 1549 1549 1549 1549 1548 1548 1548 1547 1547 1547 1546 1546 1546 1546 1545 1545 1544 1544 1543 1542 1542 1541 1540 1540 1539 1539 1538 1538 1537 1537 1536 1536 1535 1534 1533 1532 1531 1530 1529 1527 1526 1525 1523 1522 1520 1519 1519 1518 1517 1516 1515 1514 1513 1511 1510 1509 1507 1506 1505 1504 1502 1501 1500 1499 1498 1497 1495 1494 1493 1492 1490 1489 1488 1487 1486 1485 1484
1544 1544 1545 1545 1546 1546 1547 1547 1547 1548 1548 1548 1548 1549 1549 1549 1549 1549 1549 1549 1549 1549 1549 1549 1549 1549 1549 1549 1549 1548 1548 1548 1547 1547 1546 1546 1546 1546 1545 1545 1545 1544 1544 1543 1543 1542 1541 1540 1540 1539 1539 1539 1538 1538 1537 1536 1536 1535 1534 1533 1532 1531 1530 1529 1528 1527 1525 1524 1522 1521 1519 1518 1517 1516 1515 1514 1513 1512 1511 1510 1509 1507 1506 1505 1504 1502 1501 1500 1499 1498 1496 1495 1494 1493 1491 1490 1489 1488 1487 1485 1484 1483 1482
1544 1544 1545 1545 1546 1546 1546 1547 1547 1547 1547 1548 1548 1548 1549 1549 1549 1549 1549 1549 1549 1549 1549 1549 1549 1549 1549 1549 1548 1548 1548 1547 1547 1546 1546 1546 1545 1545 1545 1544 1544 1544 1543 1543 1542 1541 1540 1540 1539 1539 1539 1538 1538 1537 1537 1536 1535 1534 1533 1533 1532 1531 1529 1528 1527 1526 1524 1523 1521 1519 1518 1517 1516 1514 1514 1512 1511 1510 1509 1508 1507 1506 1505 1504 1502 1501 1500 1499 1497 1496 1495 1494 1492 1491 1489 1489 1487 1486 1485 1484 1483 1482 1481
1544 1544 1545 1545 1546 1546 1546 1546 1547 1547 1547 1547 1548 1548 1548 1548 1549 1549 1549 1549 1549 1549 1549 1549 1549 1548 1548 1548 1548 1548 1547 1547 1546 1546 1545 1545 1545 1544 1544 1544 1544 1543 1543 1542 1541 1540 1540 1539 1539 1539 1538 1538 1537 1537 1536 1535 1534 1534 1533 1532 1531 1530 1529 1527 1526 1525 1523 1521 1520 1518 1516 1515 1514 1513 1512 1511 1510 1509 1508 1507 1506 1505 1504 1502 1501 1500 1499 1497 1496 1494 1493 1492 1490 1489 1488 1487 1485 1484 1483 1482 1481 1480 1479
1544 1544 1544 1545 1545 1546 1546 1546 1546 1547 1547 1547 1547 1548 1548 1548 1548 1548 1548 1548 1548 1549 1549 1548 1548 1548 1548 1548 1547 1547 1547 1546 1546 1545 1544 1544 1544 1544 1544 1543 1543 1542 1542 1541 1540 1540 1539 1539 1539 1538 1538 1537 1537 1536 1535 1534 1534 1533 1532 1531 1530 1529 1528 1527 1525 1524 1522 1520 1519 1517 1515 1514 1513 1512 1511 1510 1509 1508 1506 1505 1504 1503 1502 1501 1500 1499 1497 1496 1494 1493 1492 1490 1489 1487 1486 1485 1484 1483 1482 1481 1480 1479 1478
1543 1544 1544 1545 1545 1545 1545 1546 1546 1546 1547 1547 1547 1547 1548 1548 1548 1548 1548 1548 1548 1548 1548 1548 1548 1548 1548 1547 1547 1546 1546 1546 1545 1544 1544 1543 1543 1542 1542 1542 1542 1541 1540 1540 1540 1539 1539 1538 1538 1538 1538 1537 1536 1535 1534 1534 1533 1532 1531 1530 1529 1528 1527 1526 1524 1523 1521 1519 1517 1515 1514 1513 1512 1511 1510 1509 1507 1506 1505 1504 1503 1501 1500 1499 1498 1497 1495 1494 1493 1491 1490 1489 1487 1486 1484 1483 1482 1481 1480 1479 1478 1477 1476
1543 1544 1544 1544 1545 1545 1545 1545 1546 1546 1546 1547 1547 1547 1547 1547 1548 1548 1548 1548 1548 1548 1548 1548 1548 1548 1547 1547 1546 1546 1545 1545 1544 1544 1543 1542 1542 1541 1540 1539 1539 1539 1539 1539 1539 1539 1538 1538 1538 1538 1537 1537 1535 1534 1533 1533 1532 1531 1530 1529 1528 1527 1526 1525 1524 1522 1520 1518 1516 1514 1513 1512 1511 1510 1509 1507 1506 1505 1504 1502 1501 1499 1498 1497 1496 1494 1493 1492 1491 1489 1488 1487 1485 1484 1483 1482 1480 1479 1478 1478 1476 1475 1474
1543 1543 1544 1544 1544 1544 1545 1545 1545 1546 1546 1546 1546 1547 1547 1547 1547 1547 1548 1548 1548 1548 1548 1548 1547 1547 1547 1546 1546 1545 1545 1544 1544 1544 1543 1542 1541 1541 1540 1539 1537 1537 1537 1537 1538 1538 1537 1537 1537 1537 1537 1536 1534 1533 1532 1531 1531 1530 1529 1528 1527 1526 1525 1524 1522 1521 1519 1517 1515 1514 1512 1511 1510 1509 1507 1506 1504 1503 1502 1500 1499 1498 1496 1495 1494 1492 1491 1490 1489 1488 1487 1485 1484 1483 1482 1480 1479 1478 1477 1476 1474 1473 1472
1542 1543 1543 1544 1544 1544 1544 1545 1545 1545 1546 1546 1546 1546 1547 1547 1547 1547 1547 1547 1547 1548 1547 1547 1547 1547 1546 1546 1545 1545 1544 1544 1544 1543 1543 1542 1541 1540 1540 1539 1537 1536 1535 1535 1535 1537 1537 1536 1536 1536 1536 1535 1533 1532 1531 1530 1529 1529 1528 1527 1526 1525 1524 1523 1521 1519 1518 1516 1514 1513 1511 1510 1509 1507 1506 1505 1504 1502 1501 1499 1498 1496 1495 1494 1492 1491 1489 1489 1487 1486 1485 1484 1483 1481 1480 1479 1478 1476 1475 1474 1472 1471 1469
1542 1542 1543 1543 1544 1544 1544 1544 1545 1545 1545 1546 1546 1546 1546 1546 1547 1547 1547 1547 1547 1547 1547 1547 1547 1546 1546 1545 1545 1544 1544 1544 1543 1543 1543 1542 1541 1540 1539 1539 1538 1537 1536 1535 1534 1535 1536 1536 1535 1534 1534 1534 1532 1531 1530 1529 1529 1528 1527 1526 1525 1524 1523 1522 1520 1518 1516 1514 1513 1511 1510 1509 1508 1506 1505 1504 1502 1501 1499 1498 1497 1495 1494 1493 1491 1490 1489 1487 1486 1485 1483 1482 1481 1479 1478 1477 1475 1474 1473 1471 1470 1469 1468
1541 1542 1542 1543 1543 1544 1544 1544 1544 1545 1545 1545 1545 1546 1546 1546 1546 1547 1547 1547 1547 1547 1547 1547 1546 1546 1546 1545 1545 1544 1544 1543 1543 1542 1542 1542 1541 1540 1540 1539 1539 1538 1536 1536 1535 1534 1534 1534 1533 1533 1533 1532 1532 1530 1529 1529 1528 1527 1526 1525 1524 1523 1522 1521 1519 1517 1515 1513 1512 1510 1509 1508 1507 1505 1504 1503 1501 1500 1499 1497 1496 1494 1493 1492 1490 1489 1487 1486 1485 1483 1482 1480 1479 1478 1476 1475 1474 1472 1471 1469 1468 1467 1465
1541 1541 1542 1542 1543 1543 1543 1544 1544 1544 1544 1545 1545 1545 1545 1546 1546 1546 1546 1546 1546 1546 1546 1546 1546 1546 1545 1545 1544 1544 1543 1542 1542 1542 1541 1541 1541 1541 1540 1539 1538 1537 1536 1535 1535 1535 1534 1533 1532 1531 1532 1532 1531 1531 1529 1529 1528 1527 1525 1524 1523 1522 1521 1520 1518 1516 1514 1513 1511 1510 1509 1507 1506 1505 1503 1502 1500 1499 1498 1496 1495 1494 1492 1491 1489 1488 1487 1485 1484 1482 1480 1479 1478 1476 1475 1474 1472 1471 1469 1468 1467 1465 1464
1540 1541 1541 1542 1542 1542 1543 1543 1544 1544 1544 1544 1544 1545 1545 1545 1545 1545 1546 1546 1546 1546 1545 1545 1545 1545 1545 1544 1544 1543 1543 1542 1541 1541 1541 1541 1541 1541 1540 1540 1539 1538 1536 1535 1535 1534 1533 1532 1531 1530 1531 1531 1531 1530 1529 1528 1527 1526 1525 1524 1523 1522 1520 1519 1517 1515 1513 1512 1511 1509 1508 1507 1505 1504 1503 1501 1500 1498 1497 1496 1494 1493 1492 1490 1489 1488 1486 1484 1483 1481 1479 1478 1476 1475 1474 1472 1471 1469 1468 1466 1465 1464 1462
1540 1540 1541 1541 1541 1542 1542 1543 1543 1543 1544 1544 1544 1544 1544 1545 1545 1545 1545 1545 1545 1545 1545 1544 1544 1544 1544 1543 1543 1542 1542 1541 1541 1541 1540 1540 1540 1540 1540 1539 1539 1538 1538 1536 1535 1533 1532 1532 1531 1530 1529 1530 1530 1530 1529 1528 1527 1525 1524 1523 1522 1521 1520 1519 1517 1515 1513 1511 1510 1509 1507 1506 1504 1503 1502 1500 1499 1498 1496 1495 1494 1492 1491 1489 1488 1487 1485 1484 1482 1480 1479 1477 1475 1474 1472 1471 1469 1468 1466 1465 1464 1462 1461
1539 1539 1540 1540 1541 1541 1542 1542 1542 1543 1543 1543 1543 1544 1544 1544 1544 1544 1544 1544 1544 1544 1544 1544 1543 1543 1543 1542 1542 1541 1541 1541 1541 1540 1540 1540 1540 1539 1539 1538 1537 1537 1536 1536 1535 1534 1532 1531 1531 1530 1529 1527 1527 1528 1528 1527 1526 1524 1524 1523 1521 1520 1519 1518 1516 1514 1512 1511 1509 1508 1506 1505 1504 1502 1501 1499 1498 1497 1495 1494 1493 1491 1490 1489 1487 1486 1484 1483 1481 1480 1478 1476 1474 1473 1471 1470 1468 1467 1465 1464 1462 1461 1459
1538 1539 1539 1540 1540 1540 1541 1541 1542 1542 1542 1542 1543 1543 1543 1543 1543 1544 1544 1544 1544 1543 1543 1543 1543 1542 1542 1542 1541 1541 1540 1540 1540 1540 1539 1539 1539 1538 1538 1537 1536 1536 1535 1535 1534 1534 1533 1531 1530 1529 1529 1526 1525 1524 1525 1526 1525 1524 1522 1522 1521 1520 1519 1518 1516 1514 1511 1510 1509 1507 1506 1504 1503 1501 1500 1499 1497 1496 1495 1494 1492 1491 1489 1488 1486 1485 1484 1482 1481 1479 1477 1476 1474 1472 1470 1469 1467 1465 1464 1462 1461 1459 1459
1538 1538 1539 1539 1539 1540 1540 1541 1541 1541 1541 1542 1542 1542 1542 1542 1543 1543 1543 1543 1543 1542 1542 1542 1542 1542 1542 1541 1541 1540 1540 1539 1539 1539 1539 1539 1538 1537 1537 1536 1536 1535 1535 1535 1534 1533 1532 1531 1530 1530 1529 1528 1525 1523 1522 1523 1523 1523 1522 1521 1520 1519 1518 1517 1515 1513 1510 1509 1507 1506 1505 1503 1502 1500 1499 1498 1496 1495 1494 1493 1491 1490 1489 1487 1486 1484 1483 1481 1480 1478 1476 1474 1473 1471 1470 1468 1466 1464 1462 1461 1459 1458 1458
1537 1537 1538 1538 1539 1539 1539 1540 1540 1540 1541 1541 1541 1541 1542 1542 1542 1542 1542 1542 1541 1541 1541 1541 1541 1541 1541 1540 1540 1539 1539 1539 1539 1538 1538 1538 1537 1536 1536 1535 1535 1535 1534 1534 1533 1532 1531 1530 1529 1529 1528 1527 1525 1523 1521 1520 1520 1520 1520 1520 1519 1518 1517 1516 1514 1512 1510 1508 1506 1505 1504 1502 1501 1499 1498 1497 1495 1494 1493 1492 1491 1489 1488 1486 1485 1483 1482 1480 1478 1476 1475 1473 1471 1470 1469 1466 1464 1463 1461 1460 1459 1458 1457